Weather History for Greenville/Spartanburg, SC

Change the Weather History Date:

Sunday, February 16, 2014

  Actual Average Record
Temperature  
Mean Temperature 46 °F 46 °F  
Max Temperature 60 °F 57 °F 80 °F (1911)
Min Temperature 32 °F 35 °F 9 °F (1958)
Degree Days  
Heating Degree Days 19 19  
Month to date heating degree days 343 327  
Since 1 July heating degree days 2394 2237  
Cooling Degree Days 0 0  
Month to date cooling degree days 0 0  
Year to date cooling degree days 0 0  
Moisture  
Dew Point 24 °F    
Average Humidity 46    
Maximum Humidity 64    
Minimum Humidity 27    
Precipitation  
Precipitation T in 0.16 in 2.93 in (1942)
Month to date precipitation 1.80 2.19  
Year to date precipitation 4.96 6.01  
Snow  
Snow T in 0.10 in 7.00 in (1895)
Month to date snowfall 6.3 0.6  
Since 1 July snowfall 7.2 3.4  
Snow Depth 0.00 in    
Sea Level Pressure  
Sea Level Pressure 30.04 in    
Wind  
Wind Speed 6 mph (SW)    
Max Wind Speed 17 mph    
Max Gust Speed 22 mph    
Visibility 10 miles    
Events      
T = Trace of Precipitation, MM = Missing Value Source: NWS Daily Summary

Daily Weather History Graph

Daily Weather History Graph

Search for Another Location

Airport:

Trip Planner

Search our weather history database for the weather conditions in past years. The results will help you decide how hot, cold, wet, or windy it might be!

Date:

Astronomy

Feb. 16, 2014 Rise Set
Actual Time 7:13 AM EST 6:12 PM EST
Civil Twilight 6:47 AM EST 6:38 PM EST
Nautical Twilight 6:18 AM EST 7:08 PM EST
Astronomical Twilight 5:48 AM EST 7:37 PM EST
Moon 8:01 PM EST (2/16) 7:48 AM EST (2/16)
Length of Visible Light 11h 50m
Length of Day
10h 59m
Full, 97% of the Moon is Illuminated
Feb 16
Full
Feb 22
Last Quarter
Mar 1
New
Mar 8
First Quarter
Mar 16
Full

Hourly Weather History & Observations

Time (EST) Temp. Windchill Dew Point Humidity Pressure Visibility Wind Dir Wind Speed Gust Speed Precip Events Conditions
12:53 AM 34.0 °F - 21.9 °F 61% 30.05 in 10.0 mi Calm Calm - N/A   Overcast
1:53 AM 35.1 °F 27.4 °F 21.0 °F 57% 30.04 in 10.0 mi SSW 10.4 mph - N/A   Overcast
2:53 AM 35.1 °F 28.6 °F 21.0 °F 57% 30.00 in 10.0 mi NNE 8.1 mph - 0.00 in   Overcast
3:53 AM 37.0 °F 31.6 °F 19.9 °F 50% 30.01 in 10.0 mi SSW 6.9 mph - N/A   Overcast
4:53 AM 36.0 °F 30.3 °F 23.0 °F 59% 30.03 in 10.0 mi SSW 6.9 mph - N/A   Overcast
5:53 AM 35.1 °F 27.9 °F 24.1 °F 64% 30.04 in 10.0 mi SSW 9.2 mph - N/A   Mostly Cloudy
6:53 AM 33.1 °F 26.9 °F 21.9 °F 64% 30.05 in 10.0 mi SSW 6.9 mph - N/A   Clear
7:53 AM 33.1 °F 26.9 °F 21.9 °F 64% 30.06 in 10.0 mi SSW 6.9 mph - N/A   Clear
8:53 AM 39.9 °F 35.1 °F 23.0 °F 51% 30.06 in 10.0 mi WSW 6.9 mph - N/A   Clear
9:53 AM 45.0 °F 43.5 °F 19.9 °F 37% 30.07 in 10.0 mi SSW 3.5 mph - N/A   Clear
10:53 AM 48.9 °F - 19.9 °F 32% 30.06 in 10.0 mi South 4.6 mph - N/A   Clear
11:53 AM 53.1 °F - 21.9 °F 30% 30.05 in 10.0 mi SW 8.1 mph - N/A   Clear
12:53 PM 55.0 °F - 24.1 °F 30% 30.04 in 10.0 mi SW 6.9 mph 21.9 mph N/A   Clear
1:53 PM 57.9 °F - 26.1 °F 30% 30.01 in 10.0 mi South 10.4 mph 18.4 mph N/A   Clear
2:53 PM 60.1 °F - 27.0 °F 28% 30.00 in 10.0 mi SW 10.4 mph 17.3 mph N/A   Clear
3:53 PM 60.1 °F - 28.0 °F 30% 29.98 in 10.0 mi SSW 10.4 mph 18.4 mph N/A   Clear
4:53 PM 60.1 °F - 27.0 °F 28% 29.99 in 10.0 mi SSW 13.8 mph - N/A   Clear
5:53 PM 57.0 °F - 26.1 °F 30% 30.01 in 10.0 mi WSW 10.4 mph 17.3 mph N/A   Clear
6:53 PM 52.0 °F - 27.0 °F 38% 30.04 in 10.0 mi WSW 6.9 mph - N/A   Clear
7:53 PM 51.1 °F - 25.0 °F 36% 30.07 in 10.0 mi WNW 3.5 mph - N/A   Clear
8:53 PM 48.0 °F - 26.1 °F 42% 30.08 in 10.0 mi NNW 3.5 mph - N/A   Clear
9:53 PM 46.9 °F - 26.1 °F 44% 30.09 in 10.0 mi Calm Calm - N/A   Clear
10:53 PM 44.1 °F - 26.1 °F 49% 30.11 in 10.0 mi Calm Calm - N/A   Clear
11:53 PM 44.1 °F - 27.0 °F 51% 30.11 in 10.0 mi Calm Calm - N/A   Clear